TimeCDT,TemperatureF,Dew PointF,Humidity,Sea Level PressureIn,VisibilityMPH,Wind Direction,Wind SpeedMPH,Gust SpeedMPH,PrecipitationIn,Events,Conditions,WindDirDegrees,DateUTC
12:15 AM,71.6,46.4,41,29.96,10.0,South,11.5,-,N/A,,Clear,170,2013-07-05 05:15:00
12:35 AM,73.4,46.4,38,29.96,10.0,South,10.4,-,N/A,,Clear,170,2013-07-05 05:35:00
12:55 AM,71.6,46.4,41,29.95,10.0,South,10.4,-,N/A,,Clear,170,2013-07-05 05:55:00
1:15 AM,69.8,46.4,43,29.95,10.0,SSE,8.1,-,N/A,,Clear,160,2013-07-05 06:15:00
1:35 AM,69.8,46.4,43,29.95,10.0,SSE,9.2,-,N/A,,Clear,150,2013-07-05 06:35:00
1:55 AM,71.6,46.4,41,29.94,10.0,SSE,11.5,-,N/A,,Clear,160,2013-07-05 06:55:00
2:15 AM,71.6,46.4,41,29.95,10.0,SSE,11.5,-,N/A,,Clear,160,2013-07-05 07:15:00
2:35 AM,71.6,44.6,38,29.95,10.0,South,12.7,-,N/A,,Clear,170,2013-07-05 07:35:00
2:55 AM,71.6,46.4,41,29.94,10.0,South,13.8,-,N/A,,Clear,170,2013-07-05 07:55:00
3:15 AM,71.6,44.6,38,29.94,10.0,South,12.7,-,N/A,,Clear,170,2013-07-05 08:15:00
3:35 AM,71.6,44.6,38,29.94,10.0,South,16.1,-,N/A,,Clear,170,2013-07-05 08:35:00
3:55 AM,71.6,44.6,38,29.94,10.0,South,12.7,-,N/A,,Clear,170,2013-07-05 08:55:00
4:15 AM,71.6,44.6,38,29.94,10.0,South,13.8,-,N/A,,Clear,170,2013-07-05 09:15:00
4:35 AM,71.6,44.6,38,29.94,10.0,South,13.8,-,N/A,,Clear,180,2013-07-05 09:35:00
4:55 AM,71.6,44.6,38,29.93,10.0,South,13.8,-,N/A,,Clear,180,2013-07-05 09:55:00
5:15 AM,71.6,44.6,38,29.93,10.0,South,13.8,-,N/A,,Mostly Cloudy,190,2013-07-05 10:15:00
5:35 AM,71.6,44.6,38,29.94,10.0,South,9.2,-,N/A,Thunderstorm,Thunderstorm,190,2013-07-05 10:35:00
5:55 AM,71.6,44.6,38,29.94,10.0,SSE,9.2,-,N/A,,Mostly Cloudy,150,2013-07-05 10:55:00
6:15 AM,69.8,44.6,40,29.93,10.0,SSE,12.7,-,N/A,Thunderstorm,Scattered Clouds,160,2013-07-05 11:15:00
6:35 AM,69.8,44.6,40,29.93,10.0,South,13.8,-,N/A,,Scattered Clouds,170,2013-07-05 11:35:00
6:55 AM,71.6,44.6,38,29.93,10.0,South,15.0,-,N/A,,Partly Cloudy,180,2013-07-05 11:55:00
7:15 AM,71.6,44.6,38,29.93,10.0,South,13.8,-,N/A,,Partly Cloudy,180,2013-07-05 12:15:00
7:35 AM,71.6,44.6,38,29.93,10.0,South,13.8,-,N/A,,Clear,180,2013-07-05 12:35:00
7:55 AM,71.6,46.4,41,29.93,10.0,South,13.8,-,N/A,,Clear,180,2013-07-05 12:55:00
8:15 AM,73.4,46.4,38,29.94,10.0,South,18.4,-,N/A,,Clear,180,2013-07-05 13:15:00
8:35 AM,75.2,46.4,36,29.94,10.0,South,21.9,26.5,N/A,,Clear,190,2013-07-05 13:35:00
8:55 AM,75.2,48.2,38,29.94,10.0,South,18.4,27.6,N/A,,Clear,190,2013-07-05 13:55:00
9:15 AM,78.8,48.2,34,29.94,10.0,South,20.7,25.3,N/A,,Clear,180,2013-07-05 14:15:00
9:35 AM,80.6,50.0,34,29.93,10.0,South,19.6,28.8,N/A,,Clear,190,2013-07-05 14:35:00
9:55 AM,80.6,50.0,34,29.93,10.0,SSW,24.2,-,N/A,,Clear,200,2013-07-05 14:55:00
10:15 AM,84.2,51.8,33,29.93,10.0,SSW,26.5,31.1,N/A,,Clear,210,2013-07-05 15:15:00
10:35 AM,84.2,51.8,33,29.92,10.0,SSW,26.5,29.9,N/A,,Clear,200,2013-07-05 15:35:00
10:55 AM,86.0,51.8,31,29.92,10.0,SSW,24.2,33.4,N/A,,Clear,200,2013-07-05 15:55:00
11:15 AM,87.8,51.8,29,29.92,10.0,SSW,26.5,31.1,N/A,,Clear,200,2013-07-05 16:15:00
11:35 AM,87.8,53.6,31,29.92,10.0,South,24.2,29.9,N/A,,Clear,190,2013-07-05 16:35:00
11:55 AM,89.6,53.6,29,29.91,10.0,SSW,25.3,29.9,N/A,,Clear,210,2013-07-05 16:55:00
12:15 PM,89.6,53.6,29,29.91,10.0,SSW,23.0,32.2,N/A,,Clear,200,2013-07-05 17:15:00
12:35 PM,91.4,53.6,28,29.90,10.0,South,25.3,31.1,N/A,,Clear,190,2013-07-05 17:35:00
12:55 PM,91.4,53.6,28,29.90,10.0,South,24.2,34.5,N/A,,Clear,190,2013-07-05 17:55:00
1:15 PM,93.2,53.6,26,29.89,10.0,South,25.3,33.4,N/A,,Clear,190,2013-07-05 18:15:00
1:35 PM,93.2,53.6,26,29.88,10.0,SSW,28.8,35.7,N/A,,Clear,200,2013-07-05 18:35:00
1:55 PM,95.0,53.6,25,29.88,10.0,SSW,28.8,36.8,N/A,,Clear,200,2013-07-05 18:55:00
2:15 PM,95.0,51.8,23,29.87,10.0,SSW,24.2,32.2,N/A,,Clear,210,2013-07-05 19:15:00
2:35 PM,95.0,51.8,23,29.87,10.0,SSW,26.5,33.4,N/A,,Clear,210,2013-07-05 19:35:00
2:55 PM,96.8,53.6,23,29.86,10.0,SW,25.3,28.8,N/A,,Clear,220,2013-07-05 19:55:00
3:15 PM,96.8,53.6,23,29.86,10.0,SSW,25.3,33.4,N/A,,Clear,200,2013-07-05 20:15:00
3:35 PM,96.8,51.8,22,29.85,10.0,SSW,24.2,33.4,N/A,,Clear,200,2013-07-05 20:35:00
3:55 PM,98.6,53.6,22,29.85,10.0,SSW,24.2,34.5,N/A,,Clear,200,2013-07-05 20:55:00
4:15 PM,98.6,51.8,21,29.84,10.0,SSW,21.9,32.2,N/A,,Clear,200,2013-07-05 21:15:00
4:35 PM,98.6,51.8,21,29.83,10.0,South,23.0,32.2,N/A,,Clear,190,2013-07-05 21:35:00
4:55 PM,98.6,51.8,21,29.82,10.0,SSW,25.3,31.1,N/A,,Clear,200,2013-07-05 21:55:00
5:15 PM,98.6,51.8,21,29.81,10.0,South,20.7,34.5,N/A,,Clear,180,2013-07-05 22:15:00
5:35 PM,96.8,51.8,22,29.81,10.0,South,21.9,29.9,N/A,,Clear,180,2013-07-05 22:35:00
5:55 PM,96.8,50.0,20,29.81,10.0,South,23.0,32.2,N/A,,Clear,180,2013-07-05 22:55:00
6:15 PM,96.8,50.0,20,29.81,10.0,South,27.6,-,N/A,,Clear,180,2013-07-05 23:15:00
6:35 PM,96.8,50.0,20,29.81,10.0,South,21.9,34.5,N/A,,Clear,180,2013-07-05 23:35:00
6:55 PM,93.2,48.2,21,29.81,10.0,South,21.9,34.5,N/A,,Clear,180,2013-07-05 23:55:00
7:15 PM,93.2,48.2,21,29.81,10.0,South,23.0,29.9,N/A,,Clear,180,2013-07-06 00:15:00
7:35 PM,91.4,48.2,23,29.82,10.0,South,23.0,27.6,N/A,,Clear,180,2013-07-06 00:35:00
7:55 PM,91.4,48.2,23,29.82,10.0,South,19.6,28.8,N/A,,Partly Cloudy,170,2013-07-06 00:55:00
8:15 PM,91.4,46.4,21,29.82,10.0,South,19.6,-,N/A,,Clear,170,2013-07-06 01:15:00
8:35 PM,89.6,46.4,22,29.83,10.0,South,19.6,27.6,N/A,,Clear,170,2013-07-06 01:35:00
8:55 PM,89.6,46.4,22,29.83,10.0,South,19.6,27.6,N/A,,Clear,170,2013-07-06 01:55:00
9:15 PM,89.6,46.4,22,29.83,10.0,South,19.6,24.2,N/A,,Clear,170,2013-07-06 02:15:00
9:35 PM,87.8,46.4,24,29.83,10.0,South,18.4,26.5,N/A,,Clear,170,2013-07-06 02:35:00
9:55 PM,87.8,46.4,24,29.84,10.0,South,20.7,-,N/A,,Clear,170,2013-07-06 02:55:00
10:15 PM,87.8,46.4,24,29.85,10.0,South,18.4,26.5,N/A,,Clear,170,2013-07-06 03:15:00
10:35 PM,86.0,46.4,25,29.85,10.0,South,18.4,-,N/A,,Clear,170,2013-07-06 03:35:00
10:55 PM,84.2,44.6,25,29.86,10.0,South,19.6,24.2,N/A,,Clear,170,2013-07-06 03:55:00
11:15 PM,84.2,44.6,25,29.87,10.0,South,17.3,-,N/A,,Clear,170,2013-07-06 04:15:00
11:35 PM,84.2,44.6,25,29.88,10.0,South,16.1,21.9,N/A,,Clear,170,2013-07-06 04:35:00
11:55 PM,84.2,44.6,25,29.89,10.0,South,16.1,-,N/A,,Partly Cloudy,170,2013-07-06 04:55:00